Tioga Municipal Airport, ND

8:06 AM CDT on April 24, 2017 (GMT -0500)
Tioga Municipal Airport

Weather History for KD60 - April, 2014

Change the Weather History Date:

Tuesday, April 1, 2014

  Actual Average (KISN) Record (KISN)
Temperature  
Mean Temperature 18 °F -  
Max Temperature 32 °F 48 °F 75 °F (2012)
Min Temperature 5 °F 23 °F -14 °F (1975)
Degree Days  
Heating Degree Days 46    
Moisture  
Dew Point 1 °F    
Average Humidity 54    
Maximum Humidity 85    
Minimum Humidity 18    
Precipitation  
Precipitation 0.00 in - - ()
Sea Level Pressure  
Sea Level Pressure 30.08 in    
Wind  
Wind Speed 4 mph (SE)    
Max Wind Speed 13 mph    
Max Gust Speed -    
Visibility 10 miles    
Events      
Averages and records for this station are not official NWS values.
T = Trace of Precipitation, MM = Missing Value Source: NWS Daily Summary

Daily Weather History Graph

Daily Weather History Graph

Search for Another Location

Airport or City:

Trip Planner

Search our weather history database for the weather conditions in past years. The results will help you decide how hot, cold, wet, or windy it might be!

Date:

Astronomy

Apr. 01, 2014 Rise Set
Actual Time 7:29 AM CDT 8:22 PM CDT
Civil Twilight 6:57 AM CDT 8:53 PM CDT
Nautical Twilight 6:19 AM CDT 9:32 PM CDT
Astronomical Twilight 5:40 AM CDT 10:12 PM CDT
Moon 8:24 AM CDT (4/1) 10:59 PM CDT (4/1)
Length of Visible Light 13h 56m
Length of Day
12h 52m
Waxing Crescent, 5% of the Moon is Illuminated
Apr 1
Waxing Crescent
Apr 7
First Quarter
Apr 15
Full
Apr 22
Last Quarter
Apr 29
New

Hourly Weather History & Observations

Time (CDT) Temp. Windchill Dew Point Humidity Pressure Visibility Wind Dir Wind Speed Gust Speed Precip Events Conditions
12:15 AM 10.4 °F 4.0 °F 1.4 °F 67% 30.15 in 10.0 mi NE 3.5 mph - N/A   Clear
12:35 AM 8.6 °F 2.0 °F 1.4 °F 73% 30.14 in 10.0 mi NE 3.5 mph - N/A   Clear
12:55 AM 8.6 °F 2.0 °F 1.4 °F 73% 30.14 in 10.0 mi NNE 3.5 mph - N/A   Clear
1:15 AM 8.6 °F 2.0 °F -0.4 °F 67% 30.14 in 10.0 mi NE 3.5 mph - N/A   Clear
1:35 AM 8.6 °F 0.1 °F 1.4 °F 73% 30.13 in 10.0 mi NE 4.6 mph - N/A   Clear
1:55 AM 8.6 °F -2.6 °F 1.4 °F 73% 30.13 in 10.0 mi NE 6.9 mph - N/A   Clear
2:15 AM 8.6 °F -2.6 °F 1.4 °F 73% 30.12 in 10.0 mi ENE 6.9 mph - N/A   Clear
2:35 AM 8.6 °F -2.6 °F 1.4 °F 73% 30.12 in 10.0 mi ENE 6.9 mph - N/A   Clear
2:55 AM 6.8 °F -5.9 °F 1.4 °F 79% 30.12 in 10.0 mi ENE 8.1 mph - N/A   Clear
3:15 AM 6.8 °F -4.8 °F 1.4 °F 79% 30.11 in 10.0 mi ENE 6.9 mph - N/A   Clear
3:35 AM 6.8 °F -3.5 °F 1.4 °F 79% 30.11 in 10.0 mi ENE 5.8 mph - N/A   Clear
3:55 AM 6.8 °F -3.5 °F 1.4 °F 79% 30.11 in 10.0 mi ENE 5.8 mph - N/A   Clear
4:15 AM 5.0 °F - 1.4 °F 85% 30.11 in 10.0 mi Calm Calm - N/A   Clear
4:35 AM 6.8 °F -0.1 °F 1.4 °F 79% 30.10 in 10.0 mi NE 3.5 mph - N/A   Clear
4:55 AM 5.0 °F - 1.4 °F 85% 30.10 in 10.0 mi Calm Calm - N/A   Clear
5:15 AM 5.0 °F - -0.4 °F 78% 30.10 in 10.0 mi Calm Calm - N/A   Clear
5:35 AM 5.0 °F -2.1 °F 1.4 °F 85% 30.09 in 10.0 mi ENE 3.5 mph - N/A   Clear
5:55 AM 5.0 °F -2.1 °F -0.4 °F 78% 30.09 in 10.0 mi ESE 3.5 mph - N/A   Clear
6:15 AM 5.0 °F - -0.4 °F 78% 30.09 in 10.0 mi Calm Calm - N/A   Clear
6:35 AM 5.0 °F - -0.4 °F 78% 30.09 in 10.0 mi Calm Calm - N/A   Clear
6:55 AM 5.0 °F - -0.4 °F 78% 30.09 in 10.0 mi Calm Calm - N/A   Clear
7:15 AM 5.0 °F - -0.4 °F 78% 30.09 in 10.0 mi Calm Calm - N/A   Clear
7:35 AM 5.0 °F - -0.4 °F 78% 30.09 in 10.0 mi Calm Calm - N/A   Clear
7:55 AM 5.0 °F - -0.4 °F 78% 30.09 in 10.0 mi Calm Calm - N/A   Clear
8:15 AM 6.8 °F - -0.4 °F 72% 30.09 in 10.0 mi Calm Calm - N/A   Clear
8:35 AM 6.8 °F - -0.4 °F 72% 30.09 in 10.0 mi Calm Calm - N/A   Clear
8:55 AM 8.6 °F 2.0 °F -0.4 °F 67% 30.10 in 10.0 mi East 3.5 mph - N/A   Clear
9:15 AM 8.6 °F - -0.4 °F 67% 30.10 in 10.0 mi Calm Calm - N/A   Clear
9:35 AM 10.4 °F - 1.4 °F 67% 30.10 in 10.0 mi Calm Calm - N/A   Clear
9:55 AM 10.4 °F 4.0 °F 1.4 °F 67% 30.10 in 10.0 mi East 3.5 mph - N/A   Clear
10:15 AM 14.0 °F 6.5 °F 1.4 °F 57% 30.10 in 10.0 mi ESE 4.6 mph - N/A   Clear
10:35 AM 15.8 °F 10.2 °F 1.4 °F 53% 30.09 in 10.0 mi SSE 3.5 mph - N/A   Partly Cloudy
10:55 AM 17.6 °F 10.7 °F -0.4 °F 45% 30.10 in 10.0 mi East 4.6 mph - N/A   Mostly Cloudy
11:15 AM 17.6 °F 9.3 °F -2.2 °F 42% 30.09 in 10.0 mi East 5.8 mph - N/A   Overcast
11:35 AM 19.4 °F 14.3 °F -4.0 °F 36% 30.09 in 10.0 mi ESE 3.5 mph - N/A   Scattered Clouds
11:55 AM 19.4 °F 11.5 °F -2.2 °F 39% 30.09 in 10.0 mi East 5.8 mph - N/A   Partly Cloudy
12:15 PM 21.2 °F 16.4 °F -4.0 °F 33% 30.08 in 10.0 mi South 3.5 mph - N/A   Partly Cloudy
12:35 PM 23.0 °F - -4.0 °F 31% 30.08 in 10.0 mi Calm Calm - N/A   Clear
12:55 PM 23.0 °F 15.8 °F -2.2 °F 33% 30.08 in 10.0 mi ESE 5.8 mph - N/A   Partly Cloudy
1:15 PM 24.8 °F 17.9 °F -4.0 °F 28% 30.08 in 10.0 mi SSW 5.8 mph - N/A   Clear
1:35 PM 26.6 °F 21.2 °F -4.0 °F 26% 30.07 in 10.0 mi South 4.6 mph - N/A   Clear
1:55 PM 26.6 °F 17.5 °F -2.2 °F 29% 30.06 in 10.0 mi South 9.2 mph - N/A   Clear
2:15 PM 26.6 °F 16.2 °F -4.0 °F 26% 30.06 in 10.0 mi SSE 11.5 mph - N/A   Scattered Clouds
2:35 PM 28.4 °F 23.3 °F -2.2 °F 27% 30.05 in 10.0 mi SSE 4.6 mph - N/A   Scattered Clouds
2:55 PM 28.4 °F 19.1 °F -2.2 °F 27% 30.04 in 10.0 mi South 10.4 mph - N/A   Partly Cloudy
3:15 PM 28.4 °F 21.2 °F -0.4 °F 29% 30.04 in 10.0 mi SSE 6.9 mph - N/A   Clear
3:35 PM 30.2 °F 22.6 °F -0.4 °F 27% 30.04 in 10.0 mi SE 8.1 mph - N/A   Clear
3:55 PM 30.2 °F 25.4 °F -2.2 °F 25% 30.03 in 10.0 mi SSW 4.6 mph - N/A   Clear
4:15 PM 30.2 °F 22.6 °F -4.0 °F 23% 30.03 in 10.0 mi South 8.1 mph - N/A   Clear
4:35 PM 30.2 °F 20.8 °F -2.2 °F 25% 30.03 in 10.0 mi South 11.5 mph - N/A   Scattered Clouds
4:55 PM 32.0 °F 28.7 °F -4.0 °F 21% 30.03 in 10.0 mi South 3.5 mph - N/A   Overcast
5:15 PM 32.0 °F 25.6 °F -4.0 °F 21% 30.02 in 10.0 mi SSW 6.9 mph - N/A   Overcast
5:35 PM 32.0 °F 26.4 °F -5.8 °F 20% 30.03 in 10.0 mi SW 5.8 mph - N/A   Partly Cloudy
5:55 PM 32.0 °F 25.6 °F -7.6 °F 18% 30.03 in 10.0 mi SSW 6.9 mph - N/A   Clear
6:15 PM 32.0 °F 25.6 °F -7.6 °F 18% 30.03 in 10.0 mi South 6.9 mph - N/A   Clear
6:35 PM 30.2 °F 22.6 °F -2.2 °F 25% 30.03 in 10.0 mi South 8.1 mph - N/A   Clear
6:55 PM 30.2 °F 21.9 °F 1.4 °F 29% 30.03 in 10.0 mi South 9.2 mph - N/A   Clear
7:15 PM 28.4 °F 19.1 °F 1.4 °F 31% 30.04 in 10.0 mi SSW 10.4 mph - N/A   Clear
7:35 PM 28.4 °F 18.0 °F 3.2 °F 34% 30.04 in 10.0 mi South 12.7 mph - N/A   Clear
7:55 PM 26.6 °F 16.2 °F 3.2 °F 37% 30.04 in 10.0 mi South 11.5 mph - N/A   Clear
8:15 PM 24.8 °F 16.1 °F 5.0 °F 43% 30.05 in 10.0 mi South 8.1 mph - N/A   Clear
8:35 PM 23.0 °F 13.9 °F 6.8 °F 50% 30.05 in 10.0 mi South 8.1 mph - N/A   Clear
8:55 PM 21.2 °F 11.7 °F 6.8 °F 54% 30.05 in 10.0 mi South 8.1 mph - N/A   Clear
9:15 PM 19.4 °F 10.4 °F 6.8 °F 58% 30.06 in 10.0 mi South 6.9 mph - N/A   Clear
9:35 PM 19.4 °F 10.4 °F 6.8 °F 58% 30.06 in 10.0 mi South 6.9 mph - N/A   Clear
9:55 PM 19.4 °F 11.5 °F 6.8 °F 58% 30.07 in 10.0 mi South 5.8 mph - N/A   Clear
10:15 PM 17.6 °F 12.3 °F 6.8 °F 63% 30.07 in 10.0 mi SE 3.5 mph - N/A   Clear
10:35 PM 17.6 °F - 8.6 °F 68% 30.07 in 10.0 mi Calm Calm - N/A   Clear
10:55 PM 17.6 °F 10.7 °F 8.6 °F 68% 30.07 in 10.0 mi SSE 4.6 mph - N/A   Clear
11:15 PM 15.8 °F 10.2 °F 8.6 °F 73% 30.07 in 10.0 mi ESE 3.5 mph - N/A   Clear
11:35 PM 14.0 °F 6.5 °F 8.6 °F 79% 30.08 in 10.0 mi SE 4.6 mph - N/A   Clear
11:55 PM 15.8 °F 7.2 °F 5.0 °F 62% 30.08 in 10.0 mi SSE 5.8 mph - N/A   Clear